星链-34843 (STARLINK-34843)

导读 | 豆包AI

STARLINK-34785是美国于2025年8月28日发射的星链系列卫星,隶属于SpaceX公司打造的星链星座项目。星链系统旨在为全球提供覆盖广泛的高速互联网服务,尤其聚焦偏远地区与网络基础设施薄弱区域的互联需求,该卫星发射后将进一步扩充星链星座的在轨规模,提升全球网络覆盖能力与服务稳定性。

基本信息
目录编号:
65354
目录名称:
STARLINK-34785
国际标识:
2025-190D
轨道中心:
EARTH
卫星名称:
星链-34843
卫星全名:
星链-34843 (STARLINK-34843)
卫星状态:
在轨 (已飞行244 天)
发射日期:
2025-08-28 UTC
国别 :
美国 (US)
星等 :
--
轨道信息
数据来源 国际轨道数据 AOE轨道数据
星历时间 2026-04-29T04:46:17+0800
13小时前
查看轨道信息
2026-04-24T16:00:00+0800
5天前
查看轨道信息
半长轴 6853.351km 6853.279km
偏心率 0.000108 0.0001418
轨道倾角 53.158° 53.158°
近地点辐角 76.433° 72.099°
升交点赤经 295.382° 316.433°
平近点角 283.680° 147.893°
近地点 474.473km 474.17km
远地点 475.955km 476.114km
周期 94.105分钟 94.104分钟
每日圈数 15.302004 15.302248
详细信息
固有亮度:
5
最大亮度:
2.5
卫星平台:
Starlink V1.0
覆盖范围:
全球
运营商:
太空探索技术公司
运营商所在国:
美国
制造商(研发单位):
太空探索技术公司
制造商所在国:
美国
使用方式:
暂无
卫星简介
Starlink 计划是 SpaceX 推出的全球卫星互联网项目,通过发射低轨道卫星,为全球尤其是偏远地区提供高速、低延迟的互联网服务。自 2019 年起,Starlink 已部署数千颗卫星,旨在缩小全球数字鸿沟,推动互联网普及。该项目还为军事、航空等行业提供通信支持,带来广泛经济效益。
2D轨道图
3D轨道图
轨道高度分析图
轨道倾角分析图
轨道综合分析图
查看轨道综合分析图